Time,TemperatureF,DewpointF,PressureIn,WindDirection,WindDirectionDegrees,WindSpeedMPH,WindSpeedGustMPH,Humidity,HourlyPrecipIn,Conditions,Clouds,dailyrainin,SolarRadiationWatts/m^2,SoftwareType,DateUTC
2013-07-13 00:01:00,71.0,56.0,-100.00,SSW,210,8.0,16.0,59,0.00,,,0.00,0.000000,,2013-07-13 05:01:00,
2013-07-13 00:22:00,71.0,56.0,-100.00,SSW,210,8.0,16.0,59,0.00,,,0.00,0.000000,,2013-07-13 05:22:00,
2013-07-13 00:33:00,71.0,56.0,-100.00,SSW,210,8.0,16.0,59,0.00,,,0.00,0.000000,,2013-07-13 05:33:00,
2013-07-13 00:42:00,71.0,56.0,-100.00,SSW,210,8.0,16.0,59,0.00,,,0.00,0.000000,,2013-07-13 05:42:00,
2013-07-13 00:52:00,71.0,56.0,-100.00,SSW,210,8.0,16.0,59,0.00,,,0.00,0.000000,,2013-07-13 05:52:00,
2013-07-13 01:01:00,71.0,56.0,-100.00,SW,221,8.0,17.0,60,0.00,,,0.00,0.000000,,2013-07-13 06:01:00,
2013-07-13 01:22:00,71.0,56.0,-100.00,SW,221,8.0,17.0,60,0.00,,,0.00,0.000000,,2013-07-13 06:22:00,
2013-07-13 01:32:00,71.0,56.0,-100.00,SW,221,8.0,17.0,60,0.00,,,0.00,0.000000,,2013-07-13 06:32:00,
2013-07-13 01:43:00,71.0,56.0,-100.00,SW,221,8.0,17.0,60,0.00,,,0.00,0.000000,,2013-07-13 06:43:00,
2013-07-13 01:52:00,71.0,56.0,-100.00,SW,221,8.0,17.0,60,0.00,,,0.00,0.000000,,2013-07-13 06:52:00,
2013-07-13 02:01:00,71.0,57.0,-100.00,SW,220,9.0,21.0,61,0.00,,,0.00,0.000000,,2013-07-13 07:01:00,
2013-07-13 02:22:00,71.0,57.0,-100.00,SW,220,9.0,21.0,61,0.00,,,0.00,0.000000,,2013-07-13 07:22:00,
2013-07-13 02:33:00,71.0,57.0,-100.00,SW,220,9.0,21.0,61,0.00,,,0.00,0.000000,,2013-07-13 07:33:00,
2013-07-13 02:44:00,71.0,57.0,-100.00,SW,220,9.0,21.0,61,0.00,,,0.00,0.000000,,2013-07-13 07:44:00,
2013-07-13 02:53:00,71.0,57.0,-100.00,SW,220,9.0,21.0,61,0.00,,,0.00,0.000000,,2013-07-13 07:53:00,
2013-07-13 03:01:00,70.0,57.0,-100.00,SSW,213,9.0,19.0,64,0.00,,,0.00,0.000000,,2013-07-13 08:01:00,
2013-07-13 03:22:00,70.0,57.0,-100.00,SSW,213,9.0,19.0,64,0.00,,,0.00,0.000000,,2013-07-13 08:22:00,
2013-07-13 03:33:00,70.0,57.0,-100.00,SSW,213,9.0,19.0,64,0.00,,,0.00,0.000000,,2013-07-13 08:33:00,
2013-07-13 03:43:00,70.0,57.0,-100.00,SSW,213,9.0,19.0,64,0.00,,,0.00,0.000000,,2013-07-13 08:43:00,
2013-07-13 03:52:00,70.0,57.0,-100.00,SSW,213,9.0,19.0,64,0.00,,,0.00,0.000000,,2013-07-13 08:52:00,
2013-07-13 04:01:00,67.0,58.0,-100.00,SW,215,7.0,15.0,73,0.05,,,0.05,0.000000,,2013-07-13 09:01:00,
2013-07-13 04:22:00,67.0,58.0,-100.00,SW,215,7.0,15.0,73,0.05,,,0.05,0.000000,,2013-07-13 09:22:00,
2013-07-13 04:33:00,67.0,58.0,-100.00,SW,215,7.0,15.0,73,0.05,,,0.05,0.000000,,2013-07-13 09:33:00,
2013-07-13 04:43:00,67.0,58.0,-100.00,SW,215,7.0,15.0,73,0.05,,,0.05,0.000000,,2013-07-13 09:43:00,
2013-07-13 04:53:00,67.0,58.0,-100.00,SW,215,7.0,15.0,73,0.05,,,0.05,0.000000,,2013-07-13 09:53:00,
2013-07-13 05:01:00,68.0,58.0,-100.00,SW,219,7.0,14.0,70,0.00,,,0.05,0.000000,,2013-07-13 10:01:00,
2013-07-13 05:22:00,68.0,58.0,-100.00,SW,219,7.0,14.0,70,0.00,,,0.05,0.000000,,2013-07-13 10:22:00,
2013-07-13 05:32:00,68.0,58.0,-100.00,SW,219,7.0,14.0,70,0.00,,,0.05,0.000000,,2013-07-13 10:32:00,
2013-07-13 05:43:00,68.0,58.0,-100.00,SW,219,7.0,14.0,70,0.00,,,0.05,0.000000,,2013-07-13 10:43:00,
2013-07-13 05:52:00,68.0,58.0,-100.00,SW,219,7.0,14.0,70,0.00,,,0.05,0.000000,,2013-07-13 10:52:00,
2013-07-13 06:01:00,67.0,57.0,-100.00,SW,216,7.0,13.0,70,0.00,,,-99.99,1.000000,,2013-07-13 11:01:00,
2013-07-13 06:22:00,67.0,57.0,-100.00,SW,216,7.0,13.0,70,0.00,,,-99.99,1.000000,,2013-07-13 11:22:00,
2013-07-13 06:32:00,67.0,57.0,-100.00,SW,216,7.0,13.0,70,0.00,,,-99.99,1.000000,,2013-07-13 11:32:00,
2013-07-13 06:43:00,67.0,57.0,-100.00,SW,216,7.0,13.0,70,0.00,,,-99.99,1.000000,,2013-07-13 11:43:00,
2013-07-13 06:52:00,67.0,57.0,-100.00,SW,216,7.0,13.0,70,0.00,,,-99.99,1.000000,,2013-07-13 11:52:00,
2013-07-13 07:01:00,68.0,57.0,-100.00,SW,220,6.0,14.0,69,0.00,,,0.05,28.000000,,2013-07-13 12:01:00,
2013-07-13 07:22:00,68.0,57.0,-100.00,SW,220,6.0,14.0,69,0.00,,,0.05,28.000000,,2013-07-13 12:22:00,
2013-07-13 07:32:00,68.0,57.0,-100.00,SW,220,6.0,14.0,69,0.00,,,0.05,28.000000,,2013-07-13 12:32:00,
2013-07-13 07:43:00,68.0,57.0,-100.00,SW,220,6.0,14.0,69,0.00,,,0.05,28.000000,,2013-07-13 12:43:00,
2013-07-13 07:52:00,68.0,57.0,-100.00,SW,220,6.0,14.0,69,0.00,,,0.05,28.000000,,2013-07-13 12:52:00,
2013-07-13 08:01:00,69.0,58.0,-100.00,SW,222,6.0,14.0,69,0.00,,,0.05,126.000000,,2013-07-13 13:01:00,
2013-07-13 08:22:00,69.0,58.0,-100.00,SW,222,6.0,14.0,69,0.00,,,0.05,126.000000,,2013-07-13 13:22:00,
2013-07-13 08:32:00,69.0,58.0,-100.00,SW,222,6.0,14.0,69,0.00,,,0.05,126.000000,,2013-07-13 13:32:00,
2013-07-13 08:43:00,69.0,58.0,-100.00,SW,222,6.0,14.0,69,0.00,,,0.05,126.000000,,2013-07-13 13:43:00,
2013-07-13 08:53:00,69.0,58.0,-100.00,SW,222,6.0,14.0,69,0.00,,,0.05,126.000000,,2013-07-13 13:53:00,
2013-07-13 09:01:00,70.0,59.0,-100.00,SW,233,7.0,15.0,68,0.00,,,0.05,197.000000,,2013-07-13 14:01:00,
2013-07-13 09:33:00,70.0,59.0,-100.00,SW,233,7.0,15.0,68,0.00,,,0.05,197.000000,,2013-07-13 14:33:00,
2013-07-13 09:44:00,70.0,59.0,-100.00,SW,233,7.0,15.0,68,0.00,,,0.05,197.000000,,2013-07-13 14:44:00,
2013-07-13 09:53:00,70.0,59.0,-100.00,SW,233,7.0,15.0,68,0.00,,,0.05,197.000000,,2013-07-13 14:53:00,
2013-07-13 10:01:00,72.0,60.0,-100.00,SW,222,8.0,15.0,66,0.00,,,0.05,233.000000,,2013-07-13 15:01:00,
2013-07-13 10:22:00,72.0,60.0,-100.00,SW,222,8.0,15.0,66,0.00,,,0.05,233.000000,,2013-07-13 15:22:00,
2013-07-13 10:33:00,72.0,60.0,-100.00,SW,222,8.0,15.0,66,0.00,,,0.05,233.000000,,2013-07-13 15:33:00,
2013-07-13 10:43:00,72.0,60.0,-100.00,SW,222,8.0,15.0,66,0.00,,,0.05,233.000000,,2013-07-13 15:43:00,
2013-07-13 10:53:00,72.0,60.0,-100.00,SW,222,8.0,15.0,66,0.00,,,0.05,233.000000,,2013-07-13 15:53:00,
2013-07-13 11:01:00,74.0,61.0,-100.00,SW,233,6.0,15.0,64,0.00,,,0.05,395.000000,,2013-07-13 16:01:00,
2013-07-13 11:22:00,74.0,61.0,-100.00,SW,233,6.0,15.0,64,0.00,,,0.05,395.000000,,2013-07-13 16:22:00,
2013-07-13 11:33:00,74.0,61.0,-100.00,SW,233,6.0,15.0,64,0.00,,,0.05,395.000000,,2013-07-13 16:33:00,
2013-07-13 11:43:00,74.0,61.0,-100.00,SW,233,6.0,15.0,64,0.00,,,0.05,395.000000,,2013-07-13 16:43:00,
2013-07-13 11:53:00,74.0,61.0,-100.00,SW,233,6.0,15.0,64,0.00,,,0.05,395.000000,,2013-07-13 16:53:00,
2013-07-13 12:01:00,78.0,62.0,-100.00,SW,216,7.0,14.0,59,0.00,,,0.05,693.000000,,2013-07-13 17:01:00,
2013-07-13 12:22:00,78.0,62.0,-100.00,SW,216,7.0,14.0,59,0.00,,,0.05,693.000000,,2013-07-13 17:22:00,
2013-07-13 12:33:00,78.0,62.0,-100.00,SW,216,7.0,14.0,59,0.00,,,0.05,693.000000,,2013-07-13 17:33:00,
2013-07-13 12:43:00,78.0,62.0,-100.00,SW,216,7.0,14.0,59,0.00,,,0.05,693.000000,,2013-07-13 17:43:00,
2013-07-13 12:52:00,78.0,62.0,-100.00,SW,216,7.0,14.0,59,0.00,,,0.05,693.000000,,2013-07-13 17:52:00,
2013-07-13 13:01:00,81.0,65.0,-100.00,SSW,212,6.0,13.0,58,0.00,,,0.05,822.000000,,2013-07-13 18:01:00,
2013-07-13 13:22:00,81.0,65.0,-100.00,SSW,212,6.0,13.0,58,0.00,,,0.05,822.000000,,2013-07-13 18:22:00,
2013-07-13 13:32:00,81.0,65.0,-100.00,SSW,212,6.0,13.0,58,0.00,,,0.05,822.000000,,2013-07-13 18:32:00,
2013-07-13 13:44:00,81.0,65.0,-100.00,SSW,212,6.0,13.0,58,0.00,,,0.05,822.000000,,2013-07-13 18:44:00,
2013-07-13 13:53:00,81.0,65.0,-100.00,SSW,212,6.0,13.0,58,0.00,,,0.05,822.000000,,2013-07-13 18:53:00,
2013-07-13 14:01:00,83.0,66.0,-100.00,SSW,203,6.0,15.0,56,0.00,,,-99.99,877.000000,,2013-07-13 19:01:00,
2013-07-13 14:22:00,83.0,66.0,-100.00,SSW,203,6.0,15.0,56,0.00,,,-99.99,877.000000,,2013-07-13 19:22:00,
2013-07-13 14:32:00,83.0,66.0,-100.00,SSW,203,6.0,15.0,56,0.00,,,-99.99,877.000000,,2013-07-13 19:32:00,
2013-07-13 14:44:00,83.0,66.0,-100.00,SSW,203,6.0,15.0,56,0.00,,,-99.99,877.000000,,2013-07-13 19:44:00,
2013-07-13 14:52:00,83.0,66.0,-100.00,SSW,203,6.0,15.0,56,0.00,,,-99.99,877.000000,,2013-07-13 19:52:00,
2013-07-13 15:01:00,82.0,65.0,-100.00,WSW,240,8.0,16.0,56,0.00,,,0.05,779.000000,,2013-07-13 20:01:00,
2013-07-13 15:22:00,82.0,65.0,-100.00,WSW,240,8.0,16.0,56,0.00,,,0.05,779.000000,,2013-07-13 20:22:00,
2013-07-13 15:33:00,82.0,65.0,-100.00,WSW,240,8.0,16.0,56,0.00,,,0.05,779.000000,,2013-07-13 20:33:00,
2013-07-13 15:43:00,82.0,65.0,-100.00,WSW,240,8.0,16.0,56,0.00,,,0.05,779.000000,,2013-07-13 20:43:00,
2013-07-13 15:53:00,82.0,65.0,-100.00,WSW,240,8.0,16.0,56,0.00,,,0.05,779.000000,,2013-07-13 20:53:00,
2013-07-13 16:01:00,83.0,65.0,-100.00,SSW,203,8.0,18.0,55,0.00,,,0.05,819.000000,,2013-07-13 21:01:00,
2013-07-13 16:22:00,83.0,65.0,-100.00,SSW,203,8.0,18.0,55,0.00,,,0.05,819.000000,,2013-07-13 21:22:00,
2013-07-13 16:32:00,83.0,65.0,-100.00,SSW,203,8.0,18.0,55,0.00,,,0.05,819.000000,,2013-07-13 21:32:00,
2013-07-13 16:43:00,83.0,65.0,-100.00,SSW,203,8.0,18.0,55,0.00,,,0.05,819.000000,,2013-07-13 21:43:00,
2013-07-13 16:53:00,83.0,65.0,-100.00,SSW,203,8.0,18.0,55,0.00,,,0.05,819.000000,,2013-07-13 21:53:00,
2013-07-13 17:01:00,82.0,65.0,-100.00,SW,218,8.0,15.0,56,0.00,,,0.05,638.000000,,2013-07-13 22:01:00,
2013-07-13 17:22:00,82.0,65.0,-100.00,SW,218,8.0,15.0,56,0.00,,,0.05,638.000000,,2013-07-13 22:22:00,
2013-07-13 17:32:00,82.0,65.0,-100.00,SW,218,8.0,15.0,56,0.00,,,0.05,638.000000,,2013-07-13 22:32:00,
2013-07-13 17:43:00,82.0,65.0,-100.00,SW,218,8.0,15.0,56,0.00,,,0.05,638.000000,,2013-07-13 22:43:00,
2013-07-13 17:53:00,82.0,65.0,-100.00,SW,218,8.0,15.0,56,0.00,,,0.05,638.000000,,2013-07-13 22:53:00,
2013-07-13 18:01:00,83.0,64.0,-100.00,SSW,213,6.0,14.0,52,0.00,,,0.05,560.000000,,2013-07-13 23:01:00,
2013-07-13 18:22:00,83.0,64.0,-100.00,SSW,213,6.0,14.0,52,0.00,,,0.05,560.000000,,2013-07-13 23:22:00,
2013-07-13 18:32:00,83.0,64.0,-100.00,SSW,213,6.0,14.0,52,0.00,,,0.05,560.000000,,2013-07-13 23:32:00,
2013-07-13 18:42:00,83.0,64.0,-100.00,SSW,213,6.0,14.0,52,0.00,,,0.05,560.000000,,2013-07-13 23:42:00,
2013-07-13 18:53:00,83.0,64.0,-100.00,SSW,213,6.0,14.0,52,0.00,,,0.05,560.000000,,2013-07-13 23:53:00,
2013-07-13 19:01:00,80.0,62.0,-100.00,SSW,198,5.0,15.0,55,0.00,,,0.05,314.000000,,2013-07-14 00:01:00,
2013-07-13 19:22:00,80.0,62.0,-100.00,SSW,198,5.0,15.0,55,0.00,,,0.05,314.000000,,2013-07-14 00:22:00,
2013-07-13 19:33:00,80.0,62.0,-100.00,SSW,198,5.0,15.0,55,0.00,,,0.05,314.000000,,2013-07-14 00:33:00,
2013-07-13 19:42:00,80.0,62.0,-100.00,SSW,198,5.0,15.0,55,0.00,,,0.05,314.000000,,2013-07-14 00:42:00,
2013-07-13 19:53:00,80.0,62.0,-100.00,SSW,198,5.0,15.0,55,0.00,,,0.05,314.000000,,2013-07-14 00:53:00,
2013-07-13 20:01:00,76.0,62.0,-100.00,SW,224,3.0,10.0,62,0.00,,,0.05,45.000000,,2013-07-14 01:01:00,
2013-07-13 20:22:00,76.0,62.0,-100.00,SW,224,3.0,10.0,62,0.00,,,0.05,45.000000,,2013-07-14 01:22:00,
2013-07-13 20:32:00,76.0,62.0,-100.00,SW,224,3.0,10.0,62,0.00,,,0.05,45.000000,,2013-07-14 01:32:00,
2013-07-13 20:43:00,76.0,62.0,-100.00,SW,224,3.0,10.0,62,0.00,,,0.05,45.000000,,2013-07-14 01:43:00,
2013-07-13 20:52:00,76.0,62.0,-100.00,SW,224,3.0,10.0,62,0.00,,,0.05,45.000000,,2013-07-14 01:52:00,
2013-07-13 21:01:00,75.0,61.0,-100.00,SSW,205,5.0,9.0,62,0.00,,,0.05,19.000000,,2013-07-14 02:01:00,
2013-07-13 21:22:00,75.0,61.0,-100.00,SSW,205,5.0,9.0,62,0.00,,,0.05,19.000000,,2013-07-14 02:22:00,
2013-07-13 21:32:00,75.0,61.0,-100.00,SSW,205,5.0,9.0,62,0.00,,,0.05,19.000000,,2013-07-14 02:32:00,
2013-07-13 21:43:00,75.0,61.0,-100.00,SSW,205,5.0,9.0,62,0.00,,,0.05,19.000000,,2013-07-14 02:43:00,
2013-07-13 21:53:00,75.0,61.0,-100.00,SSW,205,5.0,9.0,62,0.00,,,0.05,19.000000,,2013-07-14 02:53:00,
2013-07-13 22:01:00,74.0,61.0,-100.00,SW,214,3.0,10.0,63,0.00,,,0.05,0.000000,,2013-07-14 03:01:00,
2013-07-13 22:22:00,74.0,61.0,-100.00,SW,214,3.0,10.0,63,0.00,,,0.05,0.000000,,2013-07-14 03:22:00,
2013-07-13 22:32:00,74.0,61.0,-100.00,SW,214,3.0,10.0,63,0.00,,,0.05,0.000000,,2013-07-14 03:32:00,
2013-07-13 22:43:00,74.0,61.0,-100.00,SW,214,3.0,10.0,63,0.00,,,0.05,0.000000,,2013-07-14 03:43:00,
2013-07-13 22:53:00,74.0,61.0,-100.00,SW,214,3.0,10.0,63,0.00,,,0.05,0.000000,,2013-07-14 03:53:00,
2013-07-13 23:01:00,73.0,61.0,-100.00,SW,219,4.0,9.0,65,0.00,,,0.05,0.000000,,2013-07-14 04:01:00,
2013-07-13 23:22:00,73.0,61.0,-100.00,SW,219,4.0,9.0,65,0.00,,,0.05,0.000000,,2013-07-14 04:22:00,
2013-07-13 23:32:00,73.0,61.0,-100.00,SW,219,4.0,9.0,65,0.00,,,0.05,0.000000,,2013-07-14 04:32:00,
2013-07-13 23:42:00,73.0,61.0,-100.00,SW,219,4.0,9.0,65,0.00,,,0.05,0.000000,,2013-07-14 04:42:00,
2013-07-13 23:54:00,73.0,61.0,-100.00,SW,219,4.0,9.0,65,0.00,,,0.05,0.000000,,2013-07-14 04:54:00,